Other Surface Observations
Issued by NWS

Current Version | Previous Version | Text Only | Print | Product List | Glossary On
Versions: 1 2 3 4 5 6 7 8 9 10 11 12 13 14 15 16 17 18 19 20 21 22 23 24 25 26 27 28 29 30 31 32 33 34 35 36 37 38 39 40 41 42 43 44 45 46 47 48 49 50
000
SXUS52 KTAE 292216
OSOTAE
OSOTAE
North Florida/South Alabama/Southwest Georgia Weather Roundup
National Weather Service Tallahassee Florida
600 PM EDT WED JUN 29 2022

Note: "fair" indicates few or no clouds below 12,000 feet with no
significant weather and/or obstructions to visibility.

!FLZ017-115-028-034-025-292300
...North Florida...

CITY           SKY/WX    TMP DP  RH WIND       PRES   REMARKS
TALL INTL ARPT CLOUDY    81  77  88 CALM      30.13S
FSU LOVE BLDG    N/A     81  73  78 NE5         N/A
APALACHICOLA   PTSUNNY   87  77  72 S7        30.11R HX  99
PERRY          NOT AVBL
CROSS CITY     MOSUNNY   89  76  64 SW6       30.10S HX 100
JACKSONVILLE   PTSUNNY   85  70  60 E15G21    30.13R
$$

!FLZ112-006-005-002-011-292300
...Florida Panhandle...

CITY           SKY/WX    TMP DP  RH WIND       PRES   REMARKS
MARIANNA         N/A    N/A N/A N/A MISG      30.12S
BONIFAY        NOT AVBL
PANAMA CITY NW FAIR      85  74  69 CALM      30.11R HX  92
TYNDALL AFB    PTSUNNY   86  75  69 SW6       30.11R HX  95
TYND DRONE APT MOCLDY    88  77  68 SW7       30.09R HX 100
DE FUNIAK SPR  FAIR      82  74  77 CALM      30.14S
EGLIN AFB      PTSUNNY   82  73  73 N3        30.10R
DESTIN         CLOUDY    84  71  65 CALM      30.11R
HURLBURT       PTSUNNY   81  74  80 CALM      30.11R
CRESTVIEW      PTSUNNY   82  76  81 E3        30.14R
PENSACOLA      PTSUNNY   82  76  81 N7        30.12R
$$

!ALZ063-066-292300
...South Alabama...

CITY           SKY/WX    TMP DP  RH WIND       PRES   REMARKS
DOTHAN         HVY RAIN  74  74 100 NW10      30.21R FOG
OZARK CAIRNS   CLOUDY    76  75  97 NE14      30.15R
FT RUCKER HELI CLOUDY    75  70  83 NE10G21   30.20R
RUCKER HELI 3  FAIR      78  72  81 E14       30.15R
RUCKER HELI 2  CLOUDY    73  72  94 N10       30.15R
FLORALA APT    PTSUNNY   84  72  67 VRB6      30.15S
ANDALUSIA      NOT AVBL
TROY           CLOUDY    82  70  66 N7        30.17R
EUFALA         TSTM      78  72  81 SE3       30.19
MOBILE         PTSUNNY   85  69  58 E6        30.11F
$$

!GAZ120>161-292300
...Southwest and South Central Georgia...

CITY           SKY/WX    TMP DP  RH WIND       PRES   REMARKS
THOMASVILLE    PTSUNNY   79  72  78 NW7       30.18R THUNDER
BAINBRIDGE     CLOUDY    82  71  68 NE10      30.16R
MOODY AFB      TSTM      72  71  95 NE20      30.20R VSB 1/2
VALDOSTA       TSTM      76  73  91 NE13G18   30.19R FOG
MOULTRIE       CLOUDY    79  70  73 NE7       30.18R THUNDER
BLAKELY        RAIN      72  70  94 CALM      30.18S
ALBANY         CLOUDY    79  73  82 E7        30.17S
TIFTON         LGT RAIN  73  72  95 E6        30.18R
FITZGERALD     CLOUDY    74  73  95 CALM      30.20S
CORDELE        RAIN      73  70  89 E12       30.21R
AMERICUS       LGT RAIN  77  73  88 N3        30.20R
HOMERVILLE     CLOUDY    76  72  86 NE6       30.19R
$$

!GMZ750-755-770-775-292300
...Coastal and Buoy Obs...

STATION/POSITION TIME  TEMP    WIND        PRES    VSBY  WAVE
                       AIR SEA DIR/SP/G                  HT/PER
                 (UTC) (F)     (DEG/KT/KT) (MB)    (MI)  (FT/S)
KEATON BEACH     2200   85     240/  9/ 10 1019.9R
CEDAR KEY        2200   86     260/  8/ 11 1019.5F
C TOWER          2200   84     160/  6/  7 1019.9R
APALACHICOLA BUO 2150   84 85  140/ 10/ 12 1018.3F         2/ 4
PANAMA CITY BUOY 2150   85 86  130/ 10/ 12 1019.6F         2/ 5
MOBILE BUOY      2150   84 87  100/ 10/ 12 1018.5F         1/ 4
ORANGE BCH AL BU 2150   81     110/  8/ 10   N/A           2/ 5
$$



USA.gov is the U.S. government's official web portal to all federal, state and local government web resources and services.